Powrót do katalogu

CZ-6A DEB

AktywnyPO
NORAD 61305·DEBRIS·🇨🇳 China

Wystrzelony Aug 6, 2024 z Taiyuan Satellite Launch Center

Loading…

Następne Przeloty (najbliższe 24 godziny)

TLE

ŚwieżeSource: Space-Track

Epoka: Sep 14, 2026, 10:32 UTC

1 61305U 24140TS  26257.43892983  .00003566  00000-0  64136-3 0  9997
2 61305  88.9791 257.2282 0086855 287.4349  71.7384 14.63994602108986

Śledź CZ-6A DEB w czasie rzeczywistym z AllMySat

Download on the App Store